Home > Weather > Nukualofa > Past weeks

Flag for Tonga Past Weather in Nukualofa, Tonga — Yesterday and Last 2 Weeks

Now
75 °F

Passing clouds.


Feels Like: 75 °F
Forecast: 74 / 80 °F
Wind: No wind

Location: Fua'Amotu

Current Time: Jun 26, 2016 at 11:16:04 PM

Latest Report: Jun 26, 2016 at 11:00 PM


Visibility: N/A

Pressure: 30.07 "Hg

Humidity: 83%

Dew Point: 70 °F

Location of NukualofaLocation

Past Weather in Nukualofa — Graph

°F

Nukualofa Temperature Yesterday

Maximum temperature yesterday: 79 °F (at 2:00 PM)
Minimum temperature yesterday: 70 °F (at 2:00 AM)
Average temperature yesterday: 73 °F

High & Low Weather Summary for the Past Weeks

 TemperatureHumidityPressure
High82 °F (Jun 16, 1:00 PM)100% (Jun 11, 10:00 PM)30.09 "Hg (Jun 11, 10:00 PM)
Low64 °F (Jun 12, 4:00 AM)54% (Jun 21, 1:00 PM)29.86 "Hg (Jun 12, 2:00 PM)
Average74 °F84%30.00 "Hg
* Reported Jun 11 10:00 PM — Jun 26 10:00 PM, Nukualofa, Weather by CustomWeather, © 2016

Note: Actual official high and low records may vary slightly from our data, if they occured in-between our weather recording intervals... More about our weather records

Advertising

Nukualofa Weather History for the Previous 24 Hours

Scroll right to see more
 ConditionsComfort  
Time TempWeatherWind HumidityBarometerVisibility
10:00 PM
Sun, Jun 26
75 °FPassing clouds.No wind83%30.07 "HgN/A
9:00 PM73 °FPassing clouds.No wind83%30.07 "HgN/A
8:00 PM75 °FPassing clouds.No wind83%30.07 "HgN/A
7:00 PM75 °FPassing clouds.No wind83%30.04 "HgN/A
6:00 PM79 °FPassing clouds.1 mph70%30.04 "HgN/A
5:00 PM81 °FPassing clouds.2 mph66%30.01 "HgN/A
4:00 PM81 °FPassing clouds.No wind66%30.01 "HgN/A
3:00 PM81 °FPassing clouds.5 mph70%30.01 "HgN/A
2:00 PM81 °FPassing clouds.6 mph66%30.01 "HgN/A
1:00 PM81 °FPassing clouds.3 mph70%30.04 "HgN/A
12:00 PM81 °FPassing clouds.No wind62%30.07 "HgN/A
11:00 AM79 °FPassing clouds.No wind65%30.09 "HgN/A
10:00 AM77 °FPassing clouds.No wind65%30.09 "HgN/A
9:00 AM73 °FPassing clouds.No wind78%30.09 "HgN/A
8:00 AM70 °FScattered clouds.No wind88%30.07 "HgN/A
7:00 AM70 °FPassing clouds.No wind88%30.07 "HgN/A
6:00 AM72 °FPassing clouds.No wind83%30.07 "HgN/A
4:00 AM73 °FPassing clouds.No wind78%30.07 "HgN/A
3:00 AM73 °FPassing clouds.No wind83%30.07 "HgN/A
2:00 AM73 °FPassing clouds.No wind83%30.07 "HgN/A
1:00 AM72 °FPassing clouds.No wind88%30.07 "HgN/A
12:00 AM73 °FPassing clouds.No wind83%30.09 "HgN/A
11:00 PM
Sat, Jun 25
72 °FPassing clouds.9 mph83%30.09 "HgN/A
Weather by CustomWeather, © 2016

See weather overviewHow to use our weather pages